Location: Gälforsberget
(66.6500°N, 22.4167°E)
Time: 09:38:27
(UTC+00:00)

CZ-4B R/B - Pass Details

Date: 11 April 2026
Orbit: 442 x 559 km, 97.8° (Epoch: 19 May)

Event Time Altitude Azimuth Distance (km) Brightness Sun altitude
Exits shadow 19:18:34 - 166° (SSE) 2,086 5.3 -7.2°
Reaches altitude 10° 19:19:32 10° 168° (SSE) 1,677 4.8 -7.2°
Maximum altitude 19:23:07 69° 252° (WSW) 515 2.8 -7.5°
Drops below altitude 10° 19:26:36 10° 337° (NNW) 1,628 6.5 -7.8°
Sets 19:28:38 0° 340° (NNW) 2,493 7.5 -7.9°
